Regional Weather Roundup
Issued by NWS Bismarck, ND

Home | Current Version | Previous Version | Text Only | Print | Product List | Glossary On
Versions: 1 2 3 4 5 6 7 8 9 10 11 12 13 14 15 16 17 18 19 20 21 22 23 24 25 26 27 28 29 30 31 32 33 34 35 36 37 38 39 40 41 42 43 44 45 46 47 48 49 50
000
ASUS43 KBIS 270910
RWRBIS

NWR BROADCAST TEXT
NATIONAL WEATHER SERVICE BISMARCK ND
400 AM CDT WED JUL 27 2016

NOTE: "FAIR" INDICATES FEW OR NO CLOUDS BELOW 12,000 FEET WITH NO
SIGNIFICANT WEATHER AND/OR OBSTRUCTIONS TO VISIBILITY.


CITY           SKY/WX    TMP DP  RH WIND       PRES   REMARKS
WILLISTON      CLOUDY    61  53  75 NE5       30.10S
MINOT          PTCLDY    62  59  90 N5        30.10R
MINOT AFB      CLEAR     63  57  82 E13       30.08F
BISMARCK       CLEAR     63  60  90 N6        30.07R
DICKINSON      PTCLDY    57  56  96 N6        30.08F
GARRISON         N/A     62  62 100 NE3       30.09S
HETTINGER ARPT CLEAR     56  53  90 NE3       30.09F
JAMESTOWN      PTCLDY    62  61  96 NW5       30.03R
CARRINGTON     FAIR      63  61  94 NE5       30.07S
HAZEN          FAIR      57  57 100 CALM      30.10S
LINTON         FAIR      61  61 100 CALM      30.06F
MANDAN         FAIR      59  59 100 N6        30.09R
OAKES            N/A    N/A N/A N/A MISG        N/A
STANLEY        FAIR      55  55 100 E3        30.14R
WATFORD CITY     N/A    N/A N/A N/A MISG        N/A
$$

CITY           SKY/WX    TMP DP  RH WIND       PRES   REMARKS
GRAND FORKS    CLOUDY    65  61  87 N8        30.01R
GRAND FORKS AF CLOUDY    64  62  90 N8        30.03R
DEVILS LAKE    CLOUDY    62  59  90 NE9       30.08R
FARGO          LGT RAIN  68  65  90 CALM      30.00R
CAVALIER       FAIR      59  57  94 NW7       30.07R
GRAFTON        FAIR      63  57  82 N8        30.06R
GWINNER        PTSUNNY   66  64  94 NE8       29.99F
LANGDON        CLOUDY    61  55  82 NE10      30.10R
ROLLA          CLOUDY    59  57  94 N7        30.13R
$$

CITY           SKY/WX    TMP DP  RH WIND       PRES   REMARKS
ABERDEEN       CLOUDY    68  62  81 E6        29.97S
MOBRIDGE       CLEAR     66  62  87 N5        30.01R
BUFFALO          N/A     61  59  93 NE7       30.04F
RAPID CITY     CLEAR     63  60  90 NW13      30.08S
GLASGOW        CLOUDY    62  60  93 SE9       30.06S
SIDNEY         CLOUDY    61  58  90 N5        30.10S
WOLF POINT     RAIN      63  61  93 SE3       30.11F
MILES CITY     CLOUDY    67  59  75 N20       30.11R
BAKER          PTCLDY    58  55  90 S8        30.12R
$$

CITY           SKY/WX    TMP DP  RH WIND       PRES   REMARKS
BILLINGS       CLOUDY    65  56  72 N10       30.11S
GREAT FALLS    CLEAR     54  51  90 W7        30.15R
REGINA         CLEAR     57  50  77 NE7       30.13F
ESTEVAN        PTCLDY    57  55  94 E8        30.11S
$$




USA.gov is the U.S. government's official web portal to all federal, state and local government web resources and services.